Location: Unnamed
(42.1164°N, 2.7652°E)
Time: 09:29:53
(UTC+02:00)

X-37B - Pass Details

Date: 04 August 2021
Orbit: 381 x 393 km, 45.0° (Epoch: 29 August)

Event Time Altitude Azimuth Distance (km) Brightness Sun altitude
Exits shadow 04:16:23 22° 100° (E) 884 2.6 -22.3°
Drops below altitude 10° 04:17:51 10° 83° (E) 1,396 4.0 -22.2°
Sets 04:20:00 0° 74° (ENE) 2,252 5.3 -21.9°
